Location: Chrome
(40.5765°N, 74.2163°W)
Time: 18:03:22
(UTC+00:00)

Okean 1-7 - Pass Details

Date: 06 December 2019
Orbit: 590 x 619 km, 82.5° (Epoch: 28 January)

Event Time Altitude Azimuth Distance (km) Brightness Sun altitude
Rises 23:12:11 0° 175° (S) 2,833 6.6 -18.9°
Reaches altitude 10° 23:14:24 10° 171° (S) 1,940 5.6 -19.3°
Maximum altitude 23:18:35 55° 94° (E) 735 3.0 -20.0°
Enters shadow 23:19:06 51° 65° (ENE) 769 3.1 -20.1°
